Track COSMOS 2485 (GLONASS) now! COSMOS 2485 (GLONASS) is classified as:
1 39155U 13019A 23273.30561082 .00000049 00000-0 00000+0 0 9991 2 39155 64.9406 106.9804 0021785 226.6585 133.2276 2.13101842 81161